Location: Ellerstadt
(49.4644°N, 8.2615°E)
Time: 22:43:43
(UTC+00:00)

USA 306 - Pass Details

Date: 03 March 2021
Orbit: 564 x 577 km, 54.0° (Epoch: 13 April)

Event Time Altitude Azimuth Distance (km) Brightness Sun altitude
Rises 18:19:42 0° 273° (W) 2,773 8.6 -11.6°
Reaches altitude 10° 18:22:02 10° 280° (W) 1,874 7.1 -12.0°
Maximum altitude 18:26:08 46° 354° (N) 773 3.6 -12.6°
Enters shadow 18:29:14 16° 63° (ENE) 1,498 4.5 -13.1°
